| time (UTC) | temp C | wind direction | speed KPH | gust KPH | rain 1hr cm | rain 24hr cm | rain mn cm | humidity % | barometer mb |
| 20260510193044 | 28 | 140 | 4.8 | 11.3 | 0.00 | 0.00 | 0.00 | 28 | 879.4 |
| 20260510191544 | 28 | 196 | 4.8 | 24.1 | 0.00 | 0.00 | 0.00 | 27 | 879.5 |
| 20260510190047 | 28 | 239 | 6.4 | 17.7 | 0.00 | 0.00 | 0.00 | 22 | 879.5 |
| 20260510184543 | 28 | 223 | 6.4 | 16.1 | 0.00 | 0.00 | 0.00 | 19 | 879.5 |
| 20260510183041 | 28 | 241 | 4.8 | 16.1 | 0.00 | 0.00 | 0.00 | 17 | 879.5 |
| 20260510181606 | 28 | 213 | 4.8 | 16.1 | 0.00 | 0.00 | 0.00 | 23 | 879.5 |
| 20260510180041 | 28 | 290 | 1.6 | 9.7 | 0.00 | 0.00 | 0.00 | 20 | 879.5 |
| 20260510174550 | 28 | 276 | 4.8 | 17.7 | 0.00 | 0.00 | 0.00 | 21 | 879.4 |
| 20260510173030 | 27 | 272 | 9.7 | 22.5 | 0.00 | 0.00 | 0.00 | 18 | 879.3 |
| 20260510171529 | 27 | 290 | 11.3 | 19.3 | 0.00 | 0.00 | 0.00 | 17 | 879.2 |
| 20260510170027 | 27 | 279 | 11.3 | 25.7 | 0.00 | 0.00 | 0.00 | 22 | 879.0 |
| 20260510164527 | 27 | 276 | 8.0 | 14.5 | 0.00 | 0.00 | 0.00 | 21 | 878.9 |
| 20260510163024 | 27 | 264 | 9.7 | 16.1 | 0.00 | 0.00 | 0.00 | 23 | 878.8 |
| 20260510161519 | 26 | 281 | 8.0 | 14.5 | 0.00 | 0.00 | 0.00 | 25 | 878.7 |
| 20260510160021 | 23 | 295 | 4.8 | 8.0 | 0.00 | 0.00 | 0.00 | 29 | 878.6 |
| 20260510154511 | 21 | 277 | 3.2 | 4.8 | 0.00 | 0.00 | 0.00 | 51 | 878.5 |
| 20260510153008 | 20 | 277 | 3.2 | 6.4 | 0.00 | 0.00 | 0.00 | 49 | 878.4 |
| 20260510151502 | 17 | 277 | 4.8 | 8.0 | 0.00 | 0.00 | 0.00 | 49 | 878.4 |
| 20260510150058 | 15 | 288 | 6.4 | 8.0 | 0.00 | 0.00 | 0.00 | 55 | 878.4 |
| 20260510144554 | 13 | 279 | 6.4 | 8.0 | 0.00 | 0.00 | 0.00 | 56 | 878.3 |
| 20260510143053 | 12 | 288 | 8.0 | 9.7 | 0.00 | 0.00 | 0.00 | 56 | 878.1 |
| 20260510141545 | 11 | 279 | 8.0 | 9.7 | 0.00 | 0.00 | 0.00 | 60 | 877.9 |
| 20260510140041 | 9 | 289 | 8.0 | 11.3 | 0.00 | 0.00 | 0.00 | 62 | 877.9 |
| 20260510134543 | 8 | 285 | 9.7 | 11.3 | 0.00 | 0.00 | 0.00 | 71 | 877.8 |
| 20260510133040 | 7 | 271 | 8.0 | 11.3 | 0.00 | 0.00 | 0.00 | 72 | 877.7 |
| 20260510131539 | 6 | 289 | 6.4 | 9.7 | 0.00 | 0.00 | 0.00 | 68 | 877.7 |
| 20260510130037 | 5 | 302 | 4.8 | 8.0 | 0.00 | 0.00 | 0.00 | 62 | 877.6 |
| 20260510124535 | 5 | 298 | 6.4 | 9.7 | 0.00 | 0.00 | 0.00 | 65 | 877.5 |
| 20260510123032 | 6 | 296 | 4.8 | 8.0 | 0.00 | 0.00 | 0.00 | 71 | 877.5 |
| 20260510121531 | 6 | 302 | 4.8 | 8.0 | 0.00 | 0.00 | 0.00 | 67 | 877.5 |
| 20260510120033 | 6 | 291 | 4.8 | 8.0 | 0.00 | 0.00 | 0.00 | 57 | 877.4 |
| 20260510114530 | 6 | 291 | 4.8 | 8.0 | 0.00 | 0.00 | 0.00 | 61 | 877.5 |
| 20260510113027 | 6 | 296 | 3.2 | 8.0 | 0.00 | 0.00 | 0.00 | 63 | 877.4 |
| 20260510111525 | 6 | 305 | 4.8 | 8.0 | 0.00 | 0.00 | 0.00 | 61 | 877.5 |
| 20260510110022 | 6 | 300 | 4.8 | 6.4 | 0.00 | 0.00 | 0.00 | 63 | 877.4 |
| 20260510104520 | 7 | 302 | 4.8 | 8.0 | 0.00 | 0.00 | 0.00 | 61 | 877.4 |
| 20260510103019 | 7 | 277 | 1.6 | 6.4 | 0.00 | 0.00 | 0.00 | 56 | 877.3 |
| 20260510101518 | 7 | 284 | 4.8 | 8.0 | 0.00 | 0.00 | 0.00 | 65 | 877.4 |
| 20260510100014 | 7 | 296 | 4.8 | 8.0 | 0.00 | 0.00 | 0.00 | 60 | 877.5 |
| 20260510094517 | 7 | 296 | 3.2 | 4.8 | 0.00 | 0.00 | 0.00 | 57 | 877.5 |
| 20260510093011 | 7 | 296 | 1.6 | 8.0 | 0.00 | 0.00 | 0.00 | 58 | 877.4 |
| 20260510091509 | 8 | 296 | 1.6 | 6.4 | 0.00 | 0.00 | 0.00 | 56 | 877.4 |
| 20260510090013 | 7 | 296 | 0.0 | 4.8 | 0.00 | 0.00 | 0.00 | 43 | 877.5 |
| 20260510084505 | 7 | 296 | 6.4 | 9.7 | 0.00 | 0.00 | 0.00 | 62 | 877.6 |
| 20260510083003 | 8 | 292 | 1.6 | 9.7 | 0.00 | 0.00 | 0.00 | 49 | 877.6 |
| 20260510081558 | 8 | 300 | 4.8 | 8.0 | 0.00 | 0.00 | 0.00 | 58 | 877.8 |
| 20260510080101 | 8 | 275 | 0.0 | 6.4 | 0.00 | 0.00 | 0.00 | 60 | 877.8 |
| 20260510074553 | 9 | 294 | 0.0 | 0.0 | 0.00 | 0.00 | 0.00 | 53 | 877.9 |
| 20260510073050 | 9 | 294 | 0.0 | 1.6 | 0.00 | 0.00 | 0.00 | 50 | 877.9 |
| 20260510071554 | 10 | 294 | 0.0 | 3.2 | 0.00 | 0.00 | 0.00 | 44 | 877.9 |
| 20260510070044 | 10 | 294 | 0.0 | 1.6 | 0.00 | 0.00 | 0.00 | 39 | 877.9 |
| 20260510064544 | 10 | 294 | 1.6 | 4.8 | 0.00 | 0.00 | 0.00 | 52 | 878.1 |
| 20260510063045 | 10 | 294 | 0.0 | 0.0 | 0.00 | 0.00 | 0.00 | 34 | 877.9 |
| 20260510061549 | 10 | 294 | 0.0 | 0.0 | 0.00 | 0.00 | 0.00 | 50 | 877.9 |
| 20260510060042 | 10 | 294 | 0.0 | 0.0 | 0.00 | 0.00 | 0.00 | 42 | 878.0 |
| 20260510054547 | 10 | 294 | 0.0 | 0.0 | 0.00 | 0.00 | 0.00 | 42 | 878.1 |
| 20260510053041 | 10 | 294 | 0.0 | 0.0 | 0.00 | 0.00 | 0.00 | 46 | 878.1 |
| 20260510051540 | 10 | 49 | 0.0 | 0.0 | 0.00 | 0.00 | 0.00 | 62 | 878.1 |
| 20260510050037 | 10 | 49 | 0.0 | 0.0 | 0.00 | 0.00 | 0.00 | 44 | 878.0 |
| 20260510044536 | 11 | 49 | 0.0 | 0.0 | 0.00 | 0.00 | 0.00 | 40 | 878.0 |
| 20260510043033 | 11 | 49 | 0.0 | 0.0 | 0.00 | 0.00 | 0.00 | 44 | 878.0 |
| 20260510041531 | 11 | 49 | 0.0 | 0.0 | 0.00 | 0.00 | 0.00 | 52 | 877.9 |
| 20260510040034 | 11 | 49 | 0.0 | 0.0 | 0.00 | 0.00 | 0.00 | 37 | 877.8 |
| 20260510034533 | 12 | 49 | 0.0 | 0.0 | 0.00 | 0.00 | 0.00 | 43 | 877.8 |
| 20260510033031 | 12 | 49 | 0.0 | 0.0 | 0.00 | 0.00 | 0.00 | 42 | 877.7 |
| 20260510031541 | 13 | 49 | 0.0 | 3.2 | 0.00 | 0.00 | 0.00 | 51 | 877.3 |
| 20260510030029 | 14 | 49 | 0.0 | 0.0 | 0.00 | 0.00 | 0.00 | 53 | 877.1 |
| 20260510024540 | 15 | 49 | 1.6 | 6.4 | 0.00 | 0.00 | 0.00 | 59 | 877.1 |
| 20260510023028 | 16 | 93 | 0.0 | 8.0 | 0.00 | 0.00 | 0.00 | 62 | 877.0 |
| 20260510021527 | 17 | 107 | 4.8 | 8.0 | 0.00 | 0.00 | 0.00 | 63 | 876.9 |
| 20260510020026 | 18 | 78 | 4.8 | 14.5 | 0.00 | 0.00 | 0.00 | 62 | 876.9 |
| 20260510014525 | 18 | 139 | 8.0 | 19.3 | 0.00 | 0.00 | 0.00 | 61 | 876.9 |
| 20260510013025 | 19 | 105 | 14.5 | 24.1 | 0.00 | 0.00 | 0.00 | 59 | 876.9 |
| 20260510011534 | 20 | 175 | 12.9 | 24.1 | 0.00 | 0.00 | 0.00 | 57 | 876.9 |
| 20260510010022 | 20 | 125 | 14.5 | 20.9 | 0.00 | 0.00 | 0.00 | 55 | 877.0 |
| 20260510004523 | 21 | 159 | 12.9 | 24.1 | 0.00 | 0.00 | 0.00 | 55 | 876.9 |
| 20260510003046 | 21 | 114 | 14.5 | 27.4 | 0.00 | 0.00 | 0.00 | 53 | 877.0 |
| 20260510001523 | 22 | 123 | 14.5 | 29.0 | 0.00 | 0.00 | 0.00 | 52 | 876.9 |
| 20260510000021 | 22 | 121 | 14.5 | 25.7 | 0.00 | 0.00 | 0.00 | 50 | 876.9 |
| 20260509234527 | 22 | 132 | 14.5 | 27.4 | 0.00 | 0.00 | 0.00 | 50 | 876.9 |
| 20260509233022 | 22 | 109 | 16.1 | 24.1 | 0.00 | 0.00 | 0.00 | 48 | 877.0 |
| 20260509231528 | 22 | 148 | 17.7 | 29.0 | 0.00 | 0.00 | 0.00 | 47 | 877.0 |
| 20260509230028 | 23 | 133 | 16.1 | 27.4 | 0.00 | 0.00 | 0.00 | 48 | 877.1 |
| 20260509224518 | 23 | 153 | 12.9 | 25.7 | 0.00 | 0.00 | 0.00 | 46 | 877.3 |
| 20260509223015 | 23 | 142 | 16.1 | 30.6 | 0.00 | 0.00 | 0.00 | 45 | 877.3 |
| 20260509221514 | 23 | 169 | 16.1 | 29.0 | 0.00 | 0.00 | 0.00 | 40 | 877.4 |
| 20260509220013 | 24 | 140 | 14.5 | 27.4 | 0.00 | 0.00 | 0.00 | 39 | 877.7 |
| 20260509214513 | 24 | 135 | 17.7 | 27.4 | 0.00 | 0.00 | 0.00 | 35 | 877.8 |
| 20260509213013 | 24 | 154 | 14.5 | 27.4 | 0.00 | 0.00 | 0.00 | 37 | 877.8 |
| 20260509211512 | 24 | 141 | 17.7 | 25.7 | 0.00 | 0.00 | 0.00 | 37 | 877.9 |
| 20260509210015 | 24 | 140 | 14.5 | 24.1 | 0.00 | 0.00 | 0.00 | 37 | 878.1 |
| 20260509204511 | 25 | 125 | 16.1 | 27.4 | 0.00 | 0.00 | 0.00 | 35 | 878.2 |
| 20260509203014 | 24 | 138 | 16.1 | 25.7 | 0.00 | 0.00 | 0.00 | 36 | 878.2 |
| 20260509201511 | 24 | 178 | 16.1 | 25.7 | 0.00 | 0.00 | 0.00 | 33 | 878.3 |
| 20260509200009 | 24 | 169 | 16.1 | 25.7 | 0.00 | 0.00 | 0.00 | 34 | 878.4 |
| 20260509194512 | 24 | 136 | 14.5 | 24.1 | 0.00 | 0.00 | 0.00 | 36 | 878.4 |